Location: Arborea
(39.7744°N, 8.5819°E)
Time: 01:02:46
(UTC+00:00)

Cosmos 1544 Rocket - Pass Details

Date: 24 October 2021
Orbit: 603 x 632 km, 82.5° (Epoch: 06 December)

Event Time Altitude Azimuth Distance (km) Brightness Sun altitude
Rises 17:17:55 0° 180° (S) 2,907 7.1 -9.2°
Reaches altitude 10° 17:20:09 10° 178° (S) 2,005 6.3 -9.6°
Maximum altitude 17:24:34 69° 95° (E) 677 3.5 -10.5°
Drops below altitude 10° 17:29:01 10° 13° (NNE) 2,018 6.0 -11.3°
Sets 17:31:16 0° 11° (N) 2,928 6.9 -11.7°
